FW5955 Weather Reports


time (UTC)temp
F
wind
direction
speed
knots
gust
knots
rain 1hr
in
rain 24hr
in
rain mn
in
humidity
%
barometer
mb
20260503231502 40 134 2.6 7.8 0.10 0.63 0.63 95 979.1
20260503230002 41 333 1.7 9.6 0.13 0.62 0.62 95 978.9
20260503224600 41 141 2.6 10.4 0.13 0.61 0.61 95 979.2
20260503223057 41 326 2.6 13.9 0.12 0.56 0.56 95 980.0
20260503221554 41 12 6.1 13.0 0.08 0.53 0.53 95 980.7
20260503220107 41 92 5.2 20.9 0.05 0.50 0.50 95 980.8
20260503214550 40 113 8.7 15.6 0.02 0.47 0.47 95 981.2
20260503213049 40 359 9.6 21.7 0.04 0.46 0.46 95 981.6
20260503211600 39 71 10.4 21.7 0.03 0.45 0.45 94 982.5
20260503210042 39 348 9.6 20.0 0.05 0.45 0.45 94 983.5
20260503204541 39 95 9.6 19.1 0.06 0.45 0.45 94 984.3
20260503203037 39 44 9.6 24.3 0.05 0.42 0.42 94 984.8
20260503201534 39 88 8.7 20.0 0.06 0.42 0.42 94 985.9
20260503200034 39 77 8.7 20.9 0.08 0.40 0.40 94 986.9
20260503194531 39 54 7.8 19.1 0.09 0.39 0.39 94 987.5
20260503193026 39 70 8.7 21.7 0.07 0.37 0.37 94 988.7
20260503191525 39 116 10.4 25.2 0.06 0.35 0.35 94 989.5
20260503190024 39 118 7.8 20.9 0.07 0.32 0.32 94 990.7
20260503184521 39 13 10.4 20.0 0.12 0.30 0.30 94 991.8
20260503183023 39 83 10.4 22.6 0.15 0.30 0.30 94 992.8
20260503181519 39 73 7.8 21.7 0.16 0.28 0.28 94 993.6
20260503180004 39 47 9.6 20.9 0.13 0.25 0.25 94 994.3
20260503174600 39 51 8.7 20.0 0.08 0.18 0.18 94 995.4
20260503173059 40 51 8.7 20.9 0.05 0.15 0.15 94 996.1
20260503171551 40 32 9.6 18.2 0.03 0.13 0.13 94 997.1
20260503120109 41 134 2.6 6.1 0.00 0.00 0.00 89 1008.7
20260503110151 42 61 0.9 4.3 0.00 0.01 0.00 88 1010.0
20260503081536 40 126 0.0 0.0 0.00 0.01 0.00 87 1012.0
20260503071528 42 105 0.0 0.0 0.00 0.01 0.00 84 1012.7
20260503054518 43 345 0.0 0.9 0.00 0.01 0.00 79 1013.1
20260503053010 44 42 0.0 0.0 0.00 0.01 0.00 77 1013.3
20260503051508 45 41 0.0 0.9 0.00 0.01 0.00 75 1013.4
20260503050007 45 305 0.0 1.7 0.00 0.01 0.00 74 1013.6
20260503044505 45 258 0.0 1.7 0.00 0.01 0.00 74 1013.9
20260503043004 45 293 0.0 2.6 0.00 0.01 0.00 73 1014.1
20260503041501 45 279 0.0 2.6 0.00 0.01 0.00 73 1014.4
20260503040106 44 297 0.0 2.6 0.00 0.01 0.00 73 1014.6
20260503034559 44 283 0.0 1.7 0.00 0.01 0.00 73 1014.9
20260503033053 44 281 0.9 3.5 0.00 0.01 0.00 72 1014.9
20260503031550 43 287 0.0 1.7 0.00 0.01 0.00 74 1015.2
20260503030055 43 8 0.0 2.6 0.00 0.01 0.00 72 1015.3
20260503024553 44 307 0.0 5.2 0.00 0.01 0.01 70 1015.0
20260503023048 44 276 2.6 7.8 0.00 0.01 0.01 71 1015.0
20260503021547 43 246 2.6 7.0 0.00 0.01 0.01 72 1015.0
20260503020046 43 278 3.5 8.7 0.00 0.01 0.01 72 1015.1
20260503014552 43 239 3.5 9.6 0.00 0.01 0.01 73 1015.0
20260503013044 42 262 5.2 9.6 0.00 0.01 0.01 75 1015.3
20260503011548 42 256 3.5 7.8 0.00 0.01 0.01 75 1015.4
20260503010043 42 266 3.5 7.0 0.00 0.01 0.01 77 1015.4
20260503004546 42 253 3.5 8.7 0.00 0.02 0.01 76 1015.3
20260503003047 43 258 4.3 10.4 0.00 0.02 0.01 76 1015.2
20260503001545 43 248 4.3 9.6 0.00 0.02 0.01 76 1015.0
20260503000046 43 247 4.3 8.7 0.00 0.02 0.01 76 1014.9
20260502234551 43 240 4.3 10.4 0.00 0.02 0.01 75 1015.0
20260502233036 44 276 4.3 9.6 0.00 0.02 0.01 74 1014.9